Showing default

HULIANWANG DIGUI-32, 64285

Orbit data source: Space-Track

HULIANWANG DIGUI-32, 64285 is a payload satellite owned by Zhongguo Xingwang (CN) in LEO that was launched on Thu, 05 Jun 2025 UTC via a CHANG ZHENG 6A launch vehicle from the Taiyaun Space Center, China (TSC). Payload-class satellites include a variety of spacecraft equipped with specific instruments for various scientific and technological missions. These include communications satellites like Starlink; space stations such as the ISS; scientific satellites like the Hubble; Earth observation satellites from companies like Planet Labs, Umbra, and HawkEye 360; GPS; miniature CubeSats for education and research; and military/defense satellites.

Loading next visibility...
Identifier
64285, 2025-121C
Orbit
LEO
Country
Flag of CNCN / PRC
Related business
Manufacturer
SECM
Mission
Operational Civil Communications
Bus & Motor
XINGWANG S, Unknown motor
Mass
~800 kg wet, ~800 kg dry
Launch date (UTC)
2025-06-05 (1 year ago)
Launch vehicle
CHANG ZHENG 6A
Launch site
Taiyaun Space Center, China (TSC)
Object type
Payload
Rocket body
Debris
Shape & HBR
Box + 2 Pan, 5.0 m
Radar Cross Section
5.935 m², Large (>1 m²)

Expand to show TLE details & history
Last TLE update: 10 hours ago

TLE from 10 hours ago
0 HULIANWANG DIGUI-32
1 64285U 25121C   26144.88406356  .00000030  00000-0  34619-4 0  9993
2 64285  86.4970  21.2749 0001667  83.4329 276.6995 13.24407866 47078
Epoch: 2026-05-24T21:13Z
TLE epoch observation values (Epoch: 2026-05-24T21:13:03.091Z)
Latitude
-0°
Longitude
-179.46779°
Altitude
1,170.678 km
Speed
7.268 km/s
True Right ascension
01h 25m 05s
True Declination
0° 00' 00"
Sunlit
Object was in daylight at epoch
Visualization orbit readout
Latitude
Unknown
Longitude
Unknown
Altitude
Unknown
Speed
Unknown
Apparent Right ascension
Unknown
Apparent Declination
Unknown
Sunlit
N/A
Visualization observer readout
Local Sidereal Time
16:37:29
Azimuth
Unknown
Elevation
Unknown
Doppler factor
Unknown
Orbital elements
Apogee altitude
1,166.308 km
Perigee altitude
1,163.793 km
Semi-major axis
7,543.187 km
Eccentricity
0.00017
Inclination
86.497°
RAAN
21.2749°
Arg. of periapsis
83.4329°
True anomaly
276.68053°
Mean anomaly
276.6995°
Eccentric anomaly
276.69001°
Mean motion
3.31292 °/min
Orbital period
108.67 mins
BSTAR
0.000034619
Loading maneuver chart data...
Computing Atmospheric mass density...
Loading historical data...
Loading historical data...
Loading historical data...
Loading historical data...
Loading historical data...
Loading historical data...
Loading historical data...

Documentation

Showing up to 5 results
|